World > North America > United States > South Carolina

Cheraw, South Carolina Regional Weather

Lat: 34.70N, Lon: 79.9W
Wx Zone: SCZ016Web Search

Helpful Tip: Abbreviated, 7 Day, 14 Day Forecasts. There is a weather forecast for every taste.

Feedback
Cheraw Weather Map
UTC Time: 1/22/2021, 03:47
Your Time:

Cheraw, SC Regional Weather

Expires:202101220400;;288802
ASUS42 KCAE 220310
RWRCAE
REGIONAL WEATHER ROUNDUP
NATIONAL WEATHER SERVICE COLUMBIA SC
1000 PM EST THU JAN 21 2021

NOTE: "FAIR" INDICATES FEW OR NO CLOUDS BELOW 12,000 FEET WITH NO
SIGNIFICANT WEATHER AND/OR OBSTRUCTIONS TO VISIBILITY.

NOT ALL STATIONS ARE QUALITY CONTROLLED BY THE NATIONAL 
WEATHER SERVICE. USE DATA WITH CAUTION...ESPECIALLY 
DEWPOINT OBSERVATIONS.


SCZ001>056-GAZ040-063>065-077-220400-
...UPSTATE SOUTH CAROLINA...
  
CITY           SKY/WX    TMP DP  RH WIND       PRES   REMARKS
ANDERSON       MOCLDY    48  42  80 W7        29.90R                  
LIBERTY        MOCLDY    44  42  91 CALM      29.88R                  
SPARTANBURG    PTCLDY    46  32  57 CALM      29.88S                  
CLEMSON        MOCLDY    47  38  71 W10       29.89S                  
GREENVILLE     MOCLDY    48  35  60 N12       29.89R                  
GREENWOOD      MOCLDY    47  45  93 W6        29.90S                  
GREER          PTCLDY    46  33  60 N6        29.90R                  
ROCK HILL      PTCLDY    49  36  61 NW7       29.89R                  
CHESTER        PTCLDY    46  45  93 CALM      29.89R                  
LAURENS        MOCLDY    46  45  93 CALM      29.89R                  


...CENTRAL SOUTH CAROLINA...
  
CITY           SKY/WX    TMP DP  RH WIND       PRES   REMARKS
COLUMBIA APT   CLOUDY    52  46  80 W10       29.88R                  
COLUMBIA OWENS MOCLDY    54  48  80 W3        29.89S                  
ORANGEBURG     MOCLDY    55  53  93 W7        29.88R                  
NEWBERRY       MOCLDY    46  45  93 W5        29.92R                  
AIKEN          MOCLDY    53  48  83 W8        29.91R                  
BARNWELL       CLOUDY    55  54  94 W6        29.89F                  
MANNING        CLOUDY    55  52  88 CALM      29.88S                  
CAMDEN         FAIR      50  46  87 W7        29.88R                  
LANCASTER      MOCLDY    48  46  93 W5        29.88R                  
WINNSBORO      MOCLDY    48  46  93 W5        29.89R                  


...EASTERN AND COASTAL SOUTH CAROLINA...
  
CITY           SKY/WX    TMP DP  RH WIND       PRES   REMARKS
MYRTLE BEACH   CLOUDY    57  52  83 W9        29.86S                  
N MYRTLE BCH   CLOUDY    56  51  84 W5        29.85R                  
CONWAY         CLOUDY    54  50  87 CALM      29.86S                  
MARION         FAIR      48  46  93 W5        29.87R                  
HARTSVILLE     FAIR      50  46  87 CALM      29.87R                  
FLORENCE       MOCLDY    53  46  77 W12       29.86R                  
DARLINGTON     MOCLDY    51  47  86 W10       29.87R                  
CHARLESTON APT CLOUDY    59  53  80 SW8       29.89R                  
MOUNT PLEASANT CLOUDY    59  55  88 SW7G13    29.88S                  
WALTERBORO     CLOUDY    59  54  82 W9        29.90S                  
BEAUFORT       CLOUDY    62  56  80 W10       29.91S                  
HILTON HEAD    CLOUDY    61  57  88 SW8       29.92S                  


...EASTERN GEORGIA...
  
CITY           SKY/WX    TMP DP  RH WIND       PRES   REMARKS
AUGUSTA BUSH F MOCLDY    56  51  84 W8        29.90S                  
AUGUSTA DANIEL MOCLDY    55  47  74 VRB7      29.91R                  
THOMSON        MOCLDY    52  47  82 N8        29.92S                  
WASHINGTON     FAIR      50  45  81 W8        29.92R                  
CLAXTON        CLOUDY    62  58  87 CALM      29.92S                  
SYLVANIA       CLOUDY    58  57  95 W5        29.92S FOG              
STATESBORO     DRIZZLE   58  56  93 NW3       29.92R                  
SAVANNAH       CLOUDY    62  56  80 SW8       29.92S                  


...SOUTHERN NORTH CAROLINA...
  
CITY           SKY/WX    TMP DP  RH WIND       PRES   REMARKS
CHARLOTTE      MOCLDY    48  35  60 N8        29.88R                  
MONROE         PTCLDY    51  37  58 NW7       29.87R                  
ROCKINGHAM     CLOUDY    49  46  88 SW3       29.85R                  
RUTHERFORDTON  MOCLDY    43  32  65 CALM      29.90S                  
ASHEVILLE      MOCLDY    38  34  85 N9        29.91S WCI  31          

$$
  

SKY/WX - Weather  TMP - Temperature  DP - Dew Point  RH - Relative Humidity
WIND - Wind Direction/Speed PRES - Barometric Pressure VSB - Visibility
WCI - Wind Chill Index E13G22 Wind - East Wind 13 mph/Gusts of 22 mph